This demonstration page uses our WeatherBlox Daily Observations layout. Learn more.

Left ArrowRight Arrow

36.17497, -115.13722

Hourly Observations for February 18, 2020

Temp ( °F °C ) Dew Point ( °F °C ) Humidity (%) Winds ( mph kmh ) Pressure ( in mb ) Visibility ( mi km ) Precip ( " mm )
12:53 am 00:53 Clear 55 12.8 7 -13.9 14 14 NNE 12 19 30.05 1018 10 16.0934 0 0
1:53 am 01:53 Clear 53 11.7 12 -11.1 19 19 N 10 17 30.07 1018 10 16.0934 0 0
2:53 am 02:53 Clear 52 11.1 14 -10 22 22 NW 13 20 30.08 1019 10 16.0934 0 0
3:53 am 03:53 Clear 51 10.6 14 -10 23 23 NW 14 22 30.1 1019 10 16.0934 0 0
4:53 am 04:53 Clear 50 10 14 -10 24 24 N 8 13 30.13 1020 10 16.0934 0 0
5:53 am 05:53 Clear 48 8.9 14 -10 25 25 NNE 8 13 30.16 1021 10 16.0934 0 0
6:53 am 06:53 Sunny 47 8.3 14 -10 26 26 NW 9 15 30.17 1022 10 16.0934 0 0
7:53 am 07:53 Sunny 48 8.9 15 -9.4 27 27 N 8 13 30.2 1023 10 16.0934 0 0
8:53 am 08:53 Sunny 51 10.6 16 -8.9 25 25 NNW 8 13 30.21 1023 10 16.0934 0 0
9:53 am 09:53 Sunny 54 12.2 14 -10 20 20 NNW 10 17 30.21 1023 10 16.0934 0 0
10:53 am 10:53 Sunny 56 13.3 14 -10 19 19 ENE 6 9 30.19 1022 10 16.0934 0 0
11:53 am 11:53 Sunny 55 12.8 14 -10 20 20 Calm 30.16 1021 10 16.0934 0 0
12:53 pm 12:53 Sunny 58 14.4 14 -10 18 18 VRB 3 6 30.11 1020 10 16.0934 0 0
1:53 pm 13:53 Sunny 60 15.6 13 -10.6 16 16 ENE 5 7 30.08 1019 10 16.0934 0 0
2:53 pm 14:53 Sunny 61 16.1 12 -11.1 14 14 Calm 30.06 1018 10 16.0934 0 0
3:53 pm 15:53 Sunny 61 16.1 12 -11.1 14 14 ESE 5 7 30.05 1018 10 16.0934 0 0
4:53 pm 16:53 Sunny 60 15.6 12 -11.1 15 15 VRB 3 6 30.04 1017 10 16.0934 0 0
5:53 pm 17:53 Clear 59 15 12 -11.1 15 15 E 3 6 30.05 1018 10 16.0934 0 0
6:53 pm 18:53 Clear 56 13.3 13 -10.6 18 18 ENE 5 7 30.06 1018 10 16.0934 0 0
7:53 pm 19:53 Clear 55 12.8 14 -10 20 20 Calm 30.07 1018 10 16.0934 0 0
8:53 pm 20:53 Clear 51 10.6 16 -8.9 25 25 NW 5 7 30.09 1019 10 16.0934 0 0
9:53 pm 21:53 Clear 50 10 18 -7.8 28 28 W 5 7 30.09 1019 10 16.0934 0 0
10:53 pm 22:53 Clear 47 8.3 18 -7.8 31 31 NW 6 9 30.09 1019 10 16.0934 0 0
11:53 pm 23:53 Clear 45 7.2 18 -7.8 34 34 NW 7 11 30.09 1019 10 16.0934 0 0

Powered by AerisWeather